Weather History for Lancaster, CA

Change the Weather History Date:

Thursday, March 17, 2011

  Actual Average Record
Temperature  
Mean Temperature 50 °F 53 °F  
Max Temperature 65 °F 67 °F 88 °F (2007)
Min Temperature 34 °F 39 °F 26 °F (2008)
Degree Days  
Heating Degree Days 15    
Month to date heating degree days 180  
Since 1 July heating degree days 2553  
Cooling Degree Days 0    
Month to date cooling degree days 3  
Year to date cooling degree days 3  
Growing Degree Days 2 (Base 50)    
Moisture  
Dew Point 24 °F    
Average Humidity 39    
Maximum Humidity 65    
Minimum Humidity 13    
Precipitation  
Precipitation 0.00 in 0.03 in 1.66 in (1982)
Month to date precipitation T 0.75  
Year to date precipitation 1.36 4.03  
Since 1 July precipitation 7.60 6.50  
Snow  
Snow 0.00 in - T in (1982)
Month to date snowfall 0.0  
Since 1 July snowfall 0.0  
Snow Depth 0.00 in    
Sea Level Pressure  
Sea Level Pressure 30.12 in    
Wind  
Wind Speed 12 mph (WNW)    
Max Wind Speed 24 mph    
Max Gust Speed 30 mph    
Visibility 10 miles    
Events      
T = Trace of Precipitation, MM = Missing Value Source: NWS Daily Summary

Daily Weather History Graph

Daily Weather History Graph

Search for Another Location

Airport:

Trip Planner

Search our weather history database for the weather conditions in past years. The results will help you decide how hot, cold, wet, or windy it might be!

Date:

Astronomy

Mar. 17, 2011 Rise Set
Actual Time 7:00 AM PDT 7:02 PM PDT
Civil Twilight 6:35 AM PDT 7:27 PM PDT
Nautical Twilight 6:06 AM PDT 7:56 PM PDT
Astronomical Twilight 5:36 AM PDT 8:26 PM PDT
Moon 5:04 PM PDT (3/17) 5:21 AM PDT (3/17)
Length of Visible Light 12h 51m
Length of Day
12h 01m
Waxing Gibbous, 94% of the Moon is Illuminated
Mar 17
Waxing Gibbous
Mar 19
Full
Mar 26
Last Quarter
Apr 3
New
Apr 11
First Quarter

Hourly Weather History & Observations

Time (PDT) Temp. Windchill Dew Point Humidity Pressure Visibility Wind Dir Wind Speed Gust Speed Precip Events Conditions
12:56 AM 46.9 °F - 35.1 °F 63% 30.11 in 10.0 mi West 23.0 mph 29.9 mph N/A   Clear
1:56 AM 46.0 °F 38.5 °F 30.9 °F 56% 30.13 in 10.0 mi WNW 19.6 mph 26.5 mph N/A   Clear
2:56 AM 46.0 °F 39.3 °F 28.9 °F 51% 30.11 in 10.0 mi West 16.1 mph - N/A   Clear
3:56 AM 46.9 °F - 27.0 °F 46% 30.09 in 10.0 mi WNW 15.0 mph - N/A   Clear
4:56 AM 46.9 °F - 30.0 °F 52% 30.09 in 10.0 mi WNW 17.3 mph - N/A   Scattered Clouds
5:56 AM 46.9 °F - 32.0 °F 56% 30.10 in 10.0 mi WNW 10.4 mph - N/A   Clear
6:56 AM 46.9 °F - 32.0 °F 56% 30.12 in 10.0 mi West 12.7 mph - N/A   Clear
7:56 AM 46.9 °F - 32.0 °F 56% 30.14 in 10.0 mi WNW 19.6 mph - N/A   Clear
8:56 AM 48.9 °F - 30.9 °F 50% 30.15 in 10.0 mi WNW 17.3 mph - N/A   Clear
9:56 AM 50.0 °F - 32.0 °F 50% 30.17 in 10.0 mi WNW 18.4 mph - N/A   Clear
10:56 AM 53.1 °F - 30.0 °F 41% 30.17 in 10.0 mi NW 15.0 mph 21.9 mph N/A   Clear
11:56 AM 57.0 °F - 26.1 °F 30% 30.16 in 10.0 mi WNW 11.5 mph - N/A   Clear
12:56 PM 57.9 °F - 24.1 °F 27% 30.16 in 10.0 mi NW 8.1 mph - N/A   Clear
1:56 PM 61.0 °F - 21.0 °F 21% 30.12 in 10.0 mi Variable 6.9 mph - N/A   Clear
2:56 PM 63.0 °F - 21.9 °F 21% 30.09 in 10.0 mi Calm Calm - N/A   Clear
3:56 PM 64.9 °F - 18.0 °F 16% 30.08 in 10.0 mi West 10.4 mph 16.1 mph N/A   Clear
4:56 PM 64.0 °F - 12.9 °F 14% 30.07 in 10.0 mi West 12.7 mph - N/A   Clear
5:56 PM 61.0 °F - 16.0 °F 17% 30.07 in 10.0 mi West 16.1 mph - N/A   Clear
6:56 PM 55.0 °F - 15.1 °F 21% 30.09 in 10.0 mi WNW 13.8 mph - N/A   Clear
7:56 PM 50.0 °F - 16.0 °F 26% 30.11 in 10.0 mi WNW 13.8 mph - N/A   Clear
8:56 PM 44.1 °F 39.5 °F 17.1 °F 34% 30.13 in 10.0 mi NW 8.1 mph - N/A   Clear
9:56 PM 44.1 °F 39.5 °F 12.0 °F 27% 30.14 in 10.0 mi West 8.1 mph - N/A   Clear
10:56 PM 39.0 °F 36.8 °F 12.9 °F 34% 30.14 in 10.0 mi North 3.5 mph - N/A   Clear
11:56 PM 36.0 °F 31.1 °F 16.0 °F 44% 30.15 in 10.0 mi West 5.8 mph - N/A   Clear